User: anonymous   Login
Location: Unspecified
(0.0000°N, 0.0000°E)
Time: 17:06:54
(UTC+00:00)
Language:

Intelsat II F-3 - Orbit

View from above orbital plane
View from above orbital plane
View from above satellite
View from above satellite

Ground track
Ground track

The orbit data is extracted from the following two-line orbital elements,

1  2717U 67026A   19015.85153951 -.00000335 +00000-0 +00000-0 0  9993
2  2717 002.6141 303.5035 0022668 308.6128 280.9073 01.00178991096734
Epoch (UTC): 15 January 2019 20:26:13
Eccentricity: 0.0022668
inclination: 2.6141°
perigee height: 35716 km
apogee height: 35908 km
right ascension of ascending node: 303.5035°
argument of perigee: 308.6128°
revolutions per day: 1.00178991
mean anomaly at epoch: 280.9073°
orbit number at epoch: 9673

The dashed part of the orbit path shows where the satellite is in the earth's shadow,  

DLR